Home   Weather   Brilon   Past weeks

Flag for Germany Past Weather in Brilon, North Rhine-Westphalia, Germany — Yesterday and Last 2 Weeks

Now
52 °F

Clear.


Feels Like: 51 °F
Forecast: 53 / 62 °F
Wind: 5 mph from South

Location: Paderborn / Lippstadt

Current Time: Sep 27, 2016 at 7:18:44 AM

Latest Report: Sep 27, 2016 at 6:50 AM


Visibility: 10 mi

Pressure: 30.27 "Hg

Humidity: 88%

Dew Point: 48 °F

Location of BrilonLocation

Past Weather in Brilon — Graph

°F

Brilon Temperature Yesterday

Maximum temperature yesterday: 66 °F (at 3:50 PM)
Minimum temperature yesterday: 52 °F (at 11:20 PM)
Average temperature yesterday: 60 °F

High & Low Weather Summary for the Past Weeks

 TemperatureHumidityPressure
High90 °F (Sep 13, 1:50 PM)94% (Sep 17, 3:20 PM)30.30 "Hg (Sep 17, 3:20 PM)
Low43 °F (Sep 21, 5:50 AM)25% (Sep 13, 5:20 PM)29.83 "Hg (Sep 15, 4:20 PM)
Average64 °F62%30.07 "Hg
* Reported Sep 12 5:20 AM — Sep 27 5:50 AM, Brilon, Weather by CustomWeather, © 2016

Note: Actual official high and low records may vary slightly from our data, if they occured in-between our weather recording intervals... More about our weather records

Advertising

Brilon Weather History for the Previous 24 Hours

Scroll right to see more
 ConditionsComfort  
Time TempWeatherWind HumidityBarometerVisibility
5:50 AM
Tue, Sep 27
50 °FPassing clouds.3 mph94%30.27 "HgN/A
5:20 AM50 °FPassing clouds.3 mph88%30.24 "HgN/A
4:50 AM50 °FClear.2 mph88%30.24 "Hg10 mi
4:20 AM50 °FClear.1 mph94%30.24 "Hg10 mi
3:50 AM50 °FClear.2 mph94%30.24 "Hg10 mi
3:20 AM50 °FClear.3 mph94%30.24 "Hg10 mi
2:50 AM50 °FClear.3 mph88%30.24 "Hg10 mi
2:20 AM50 °FClear.1 mph88%30.24 "Hg10 mi
1:50 AM50 °FClear.2 mph94%30.24 "Hg10 mi
1:20 AM52 °FPassing clouds.3 mph88%30.24 "HgN/A
12:50 AM52 °FClear.2 mph88%30.24 "Hg10 mi
12:20 AM52 °FClear.2 mph88%30.24 "Hg10 mi
11:50 PM
Mon, Sep 26
52 °FClear.2 mph88%30.24 "Hg10 mi
11:20 PM52 °FPassing clouds.3 mph88%30.24 "HgN/A
10:50 PM54 °FPassing clouds.3 mph82%30.24 "HgN/A
10:20 PM54 °FClear.2 mph82%30.24 "Hg10 mi
9:50 PM54 °FClear.2 mph82%30.24 "Hg10 mi
9:20 PM55 °FClear.3 mph77%30.24 "Hg10 mi
8:50 PM55 °FPassing clouds.3 mph77%30.24 "HgN/A
8:20 PM59 °FClear.2 mph72%30.21 "Hg10 mi
7:50 PM59 °FClear.3 mph68%30.21 "Hg10 mi
7:20 PM61 °FClear.1 mph68%30.21 "Hg10 mi
6:50 PM63 °FScattered clouds.3 mph64%30.21 "HgN/A
6:20 PM64 °FScattered clouds.3 mph56%30.21 "HgN/A
5:50 PM64 °FScattered clouds.5 mph52%30.21 "HgN/A
5:20 PM66 °FScattered clouds.5 mph49%30.21 "HgN/A
4:50 PM66 °FScattered clouds.5 mph52%30.21 "HgN/A
4:20 PM66 °FScattered clouds.2 mph52%30.21 "HgN/A
3:50 PM66 °FScattered clouds.2 mph52%30.21 "HgN/A
3:20 PM64 °FScattered clouds.3 mph60%30.21 "HgN/A
2:50 PM64 °FScattered clouds.3 mph56%30.21 "HgN/A
2:20 PM64 °FScattered clouds.5 mph60%30.21 "HgN/A
1:50 PM64 °FScattered clouds.6 mph56%30.21 "HgN/A
1:20 PM64 °FScattered clouds.3 mph60%30.21 "HgN/A
12:50 PM63 °FScattered clouds.5 mph68%30.24 "HgN/A
12:20 PM63 °FPartly sunny.5 mph68%30.24 "HgN/A
11:50 AM61 °FPartly sunny.3 mph72%30.24 "HgN/A
11:20 AM59 °FPartly sunny.5 mph77%30.24 "HgN/A
10:50 AM59 °FPartly sunny.3 mph77%30.24 "HgN/A
10:20 AM59 °FPartly sunny.6 mph77%30.21 "Hg6 mi
9:50 AM59 °FPartly sunny.6 mph72%30.21 "Hg6 mi
9:20 AM59 °FBroken clouds.6 mph77%30.21 "Hg5 mi
8:50 AM59 °FBroken clouds.5 mph77%30.21 "Hg5 mi
8:20 AM57 °FBroken clouds.3 mph77%30.21 "HgN/A
7:50 AM57 °FScattered clouds.3 mph77%30.21 "HgN/A
7:20 AM57 °FScattered clouds.3 mph77%30.21 "HgN/A
Weather by CustomWeather, © 2016

See weather overviewHow to use our weather pages